When you browse on this site, cookies collect data to enhance your experience and personalize the content and advertising you see.
Visit our Privacy Policy to learn more. By continuing to use the site, you agree to this use of cookies and data.
  • En España
  • Lista de países
  • Para 7 días
  • Temperatura del agua
  • Mapa Satelital
  • El tiempo en el mapa
  • Informadores
  • user-avatar
    Iniciar sesión

    Tiempo cada hora Ust-Kolpna

    Hoy, 20 Enero, Domingo

    Tiempo Temperatura Precipitaciones Viento Presión Humedad
    00:00 -11°C° 0 mm 4 mps 745 mmHg 94%
    01:00 -11°C° 0 mm 4 mps 746 mmHg 94%
    02:00 -11°C° 0 mm 4 mps 746 mmHg 94%
    03:00 -10°C° 0 mm 3 mps 746 mmHg 95%
    04:00 -10°C° 0 mm 3 mps 746 mmHg 95%
    05:00 -11°C° 0 mm 4 mps 746 mmHg 95%
    06:00 -12°C° 0 mm 5 mps 747 mmHg 96%
    07:00 -12°C° 0 mm 5 mps 746 mmHg 95%
    08:00 -12°C° 0 mm 5 mps 746 mmHg 95%
    09:00 -12°C° 0 mm 5 mps 746 mmHg 94%
    10:00 -12°C° 0 mm 6 mps 746 mmHg 92%
    11:00 -11°C° 0 mm 6 mps 746 mmHg 91%
    12:00 -11°C° 0 mm 6 mps 746 mmHg 89%
    13:00 -12°C° 0 mm 7 mps 745 mmHg 88%
    14:00 -11°C° 0 mm 7 mps 745 mmHg 88%
    15:00 -11°C° 0 mm 8 mps 745 mmHg 87%
    16:00 -11°C° 0 mm 7 mps 744 mmHg 87%
    17:00 -11°C° 0 mm 7 mps 744 mmHg 87%
    18:00 -12°C° 0 mm 7 mps 744 mmHg 87%
    19:00 -11°C° 0 mm 7 mps 744 mmHg 87%
    20:00 -11°C° 0 mm 7 mps 744 mmHg 87%
    21:00 -10°C° 0 mm 6 mps 743 mmHg 88%
    22:00 -11°C° 0 mm 6 mps 743 mmHg 88%
    23:00 -11°C° 0 mm 6 mps 743 mmHg 89%

    Mañana, 21 Enero, Lunes

    Tiempo Temperatura Precipitaciones Viento Presión Humedad
    00:00 -11°C° 0 mm 6 mps 743 mmHg 89%
    01:00 -12°C° 0.1 mm 6 mps 743 mmHg 91%
    02:00 -12°C° 0.1 mm 6 mps 743 mmHg 92%
    03:00 -12°C° 0.1 mm 6 mps 742 mmHg 93%
    04:00 -13°C° 0.2 mm 5 mps 742 mmHg 93%
    05:00 -13°C° 0.2 mm 5 mps 742 mmHg 94%
    06:00 -14°C° 0.2 mm 5 mps 741 mmHg 94%
    07:00 -14°C° 0.2 mm 4 mps 741 mmHg 94%
    08:00 -14°C° 0.2 mm 4 mps 741 mmHg 95%
    09:00 -14°C° 0.2 mm 4 mps 741 mmHg 95%
    10:00 -12°C° 0.1 mm 4 mps 741 mmHg 95%
    11:00 -10°C° 0.1 mm 3 mps 741 mmHg 94%
    12:00 -10°C° 0.1 mm 3 mps 741 mmHg 94%
    13:00 -10°C° 0 mm 4 mps 741 mmHg 92%
    14:00 -10°C° 0 mm 4 mps 741 mmHg 89%
    15:00 -10°C° 0 mm 5 mps 741 mmHg 87%
    16:00 -11°C° 0 mm 4 mps 741 mmHg 88%
    17:00 -12°C° 0 mm 4 mps 741 mmHg 88%
    18:00 -15°C° 0 mm 4 mps 742 mmHg 89%
    19:00 -16°C° 0 mm 4 mps 742 mmHg 90%
    20:00 -17°C° 0 mm 4 mps 743 mmHg 91%
    21:00 -18°C° 0 mm 4 mps 743 mmHg 93%
    22:00 -19°C° 0 mm 4 mps 743 mmHg 94%
    23:00 -20°C° 0 mm 4 mps 744 mmHg 95%

    Pasado mañana, 22 Enero, Martes

    Tiempo Temperatura Precipitaciones Viento Presión Humedad
    00:00 -21°C° 0 mm 3 mps 744 mmHg 97%
    01:00 -21°C° 0 mm 3 mps 745 mmHg 97%
    02:00 -22°C° 0 mm 3 mps 745 mmHg 98%
    03:00 -22°C° 0 mm 3 mps 745 mmHg 98%
    04:00 -23°C° 0 mm 3 mps 746 mmHg 98%
    05:00 -23°C° 0 mm 3 mps 746 mmHg 99%
    06:00 -23°C° 0 mm 3 mps 746 mmHg 99%
    07:00 -23°C° 0 mm 3 mps 746 mmHg 99%
    08:00 -24°C° 0 mm 3 mps 746 mmHg 99%
    09:00 -24°C° 0 mm 3 mps 747 mmHg 99%
    10:00 -23°C° 0 mm 3 mps 747 mmHg 98%
    11:00 -21°C° 0 mm 3 mps 747 mmHg 96%
    12:00 -19°C° 0 mm 3 mps 748 mmHg 95%
    13:00 -19°C° 0 mm 3 mps 748 mmHg 95%
    14:00 -17°C° 0 mm 2 mps 748 mmHg 94%
    15:00 -17°C° 0 mm 2 mps 748 mmHg 94%
    16:00 -18°C° 0 mm 2 mps 748 mmHg 96%
    17:00 -16°C° 0 mm 1 mps 748 mmHg 97%
    18:00 -17°C° 0 mm 1 mps 748 mmHg 98%
    19:00 -17°C° 0 mm 1 mps 748 mmHg 98%
    20:00 -16°C° 0 mm 1 mps 748 mmHg 98%
    21:00 -18°C° 0 mm 2 mps 748 mmHg 98%
    22:00 -17°C° 0 mm 2 mps 749 mmHg 98%
    23:00 -17°C° 0 mm 2 mps 749 mmHg 97%

    23 Enero, Miércoles

    Tiempo Temperatura Precipitaciones Viento Presión Humedad
    00:00 -16°C° 0 mm 2 mps 749 mmHg 97%
    01:00 -16°C° 0 mm 2 mps 749 mmHg 97%
    02:00 -16°C° 0 mm 2 mps 749 mmHg 97%
    03:00 -16°C° 0 mm 2 mps 749 mmHg 97%
    04:00 -16°C° 0 mm 2 mps 749 mmHg 97%
    05:00 -16°C° 0 mm 2 mps 749 mmHg 97%
    06:00 -16°C° 0 mm 2 mps 749 mmHg 97%
    07:00 -16°C° 0 mm 2 mps 749 mmHg 97%
    08:00 -16°C° 0 mm 2 mps 749 mmHg 97%
    09:00 -16°C° 0 mm 2 mps 750 mmHg 97%
    10:00 -15°C° 0 mm 2 mps 750 mmHg 96%
    11:00 -15°C° 0 mm 3 mps 750 mmHg 96%
    12:00 -14°C° 0 mm 3 mps 750 mmHg 95%
    13:00 -13°C° 0 mm 3 mps 750 mmHg 94%
    14:00 -13°C° 0 mm 3 mps 750 mmHg 93%
    15:00 -12°C° 0 mm 3 mps 750 mmHg 92%
    16:00 -13°C° 0 mm 3 mps 750 mmHg 93%
    17:00 -14°C° 0 mm 3 mps 750 mmHg 94%
    18:00 -15°C° 0 mm 3 mps 751 mmHg 95%
    19:00 -16°C° 0 mm 3 mps 751 mmHg 93%
    20:00 -17°C° 0 mm 3 mps 751 mmHg 92%
    21:00 -18°C° 0 mm 3 mps 751 mmHg 90%
    22:00 -19°C° 0 mm 3 mps 751 mmHg 88%
    23:00 -21°C° 0 mm 3 mps 751 mmHg 86%

    24 Enero, Jueves

    Tiempo Temperatura Precipitaciones Viento Presión Humedad
    00:00 -21°C° 0 mm 3 mps 751 mmHg 84%
    01:00 -21°C° 0 mm 3 mps 751 mmHg 82%
    02:00 -22°C° 0 mm 3 mps 751 mmHg 81%
    03:00 -22°C° 0 mm 3 mps 751 mmHg 79%
    04:00 -22°C° 0 mm 3 mps 751 mmHg 79%
    05:00 -22°C° 0 mm 3 mps 751 mmHg 78%
    06:00 -22°C° 0 mm 3 mps 751 mmHg 77%
    07:00 -23°C° 0 mm 3 mps 751 mmHg 77%
    08:00 -23°C° 0 mm 3 mps 751 mmHg 77%
    09:00 -23°C° 0 mm 3 mps 751 mmHg 77%
    10:00 -21°C° 0 mm 3 mps 751 mmHg 80%
    11:00 -18°C° 0 mm 3 mps 751 mmHg 82%
    12:00 -17°C° 0 mm 3 mps 751 mmHg 85%
    13:00 -17°C° 0 mm 3 mps 751 mmHg 87%
    14:00 -15°C° 0 mm 2 mps 750 mmHg 89%
    15:00 -15°C° 0 mm 2 mps 750 mmHg 91%
    16:00 -16°C° 0 mm 2 mps 750 mmHg 93%
    17:00 -17°C° 0 mm 2 mps 750 mmHg 94%
    18:00 -18°C° 0 mm 2 mps 750 mmHg 95%
    19:00 -18°C° 0 mm 2 mps 749 mmHg 96%
    20:00 -17°C° 0 mm 2 mps 749 mmHg 97%
    21:00 -16°C° 0 mm 2 mps 749 mmHg 98%
    22:00 -16°C° 0 mm 2 mps 749 mmHg 98%
    23:00 -15°C° 0 mm 2 mps 749 mmHg 97%

    25 Enero, Viernes

    Tiempo Temperatura Precipitaciones Viento Presión Humedad
    00:00 -16°C° 0 mm 3 mps 749 mmHg 97%
    01:00 -15°C° 0 mm 3 mps 749 mmHg 97%
    02:00 -15°C° 0 mm 3 mps 748 mmHg 97%
    03:00 -14°C° 0 mm 3 mps 748 mmHg 97%
    04:00 -15°C° 0 mm 4 mps 748 mmHg 96%
    05:00 -15°C° 0 mm 4 mps 747 mmHg 96%
    06:00 -15°C° 0 mm 4 mps 747 mmHg 96%
    07:00 -15°C° 0.2 mm 4 mps 747 mmHg 96%
    08:00 -15°C° 0.2 mm 5 mps 747 mmHg 96%
    09:00 -14°C° 0.2 mm 5 mps 747 mmHg 95%
    10:00 -14°C° 0.3 mm 5 mps 746 mmHg 95%
    11:00 -14°C° 0.3 mm 5 mps 746 mmHg 95%
    12:00 -14°C° 0.3 mm 5 mps 746 mmHg 95%
    13:00 -13°C° 0.1 mm 5 mps 745 mmHg 95%
    14:00 -13°C° 0.1 mm 5 mps 745 mmHg 95%
    15:00 -12°C° 0.1 mm 4 mps 744 mmHg 95%
    16:00 -12°C° 0.1 mm 4 mps 744 mmHg 95%
    17:00 -12°C° 0.1 mm 4 mps 744 mmHg 95%
    18:00 -12°C° 0.1 mm 4 mps 744 mmHg 95%
    19:00 -12°C° 0.1 mm 4 mps 743 mmHg 95%
    20:00 -12°C° 0.1 mm 4 mps 743 mmHg 95%
    21:00 -12°C° 0.1 mm 4 mps 743 mmHg 95%
    22:00 -11°C° 0.1 mm 4 mps 742 mmHg 95%
    23:00 -11°C° 0.1 mm 4 mps 742 mmHg 95%
    Mostrar más